Regional Weather Roundup
Issued by NWS Sterling, VA

Home | Current Version | Previous Version | Text Only | Print | Product List | Glossary On
Versions: 1 2 3 4 5 6 7 8 9 10 11 12 13 14 15 16 17 18 19 20 21 22 23 24 25 26 27 28 29 30 31 32 33 34 35 36 37 38 39 40 41 42 43 44 45 46 47 48 49 50
000
ASUS41 KLWX 220010
RWRLWX

REGIONAL WEATHER ROUNDUP
NATIONAL WEATHER SERVICE BALTIMORE MD/WASHINGTON DC
700 PM EST SAT JAN 21 2017

Note: "FAIR" indicates few or no clouds below 12,000 feet
with no significant weather and/or obstructions to visibility.
 TC=TEMPERATURE CELSIUS

 * =Non NWS site. Station does not report precipitation (e.g. rain,
    snow, etc.), thunder, or fog.

DCZ001-MDZ009-015-VAZ040>042-051-053>054-220100-
WASHINGTON METRO

CITY           SKY/WX    TMP DP  RH WIND       PRES   REMARKS
WASHINGTON NAT CLOUDY    49  48  97 SE3       29.81F FOG
DULLES         FOG       48  47  96 CALM      29.80F VSB 1/2
ANDREWS AFB    CLOUDY    48  46  93 CALM      29.79F FOG
FT BELVOIR     CLOUDY    49  47  96 CALM      29.80F FOG
QUANTICO       FOG       48  48 100 E3        29.81F VSB 3/4
COLLEGE PARK*  CLOUDY    46  46 100 CALM      29.80F
LEESBURG*      CLOUDY    50  50 100 S3        29.81R FOG
MANASSAS*      FOG      N/A N/A N/A CALM      29.79F VSB 1
GAITHERSBURG*  CLOUDY    46  45  93 SE5       29.83F

$$

MDZ006>007-011-014-220100-
BALTIMORE METRO

CITY           SKY/WX    TMP DP  RH WIND       PRES   REMARKS
BWI AIRPORT    FOG       46  46 100 E3        29.81F VSB 3/4
MD SCIENCE CTR   N/A     46  44  93 MISG      29.82F
MARTIN STATE   FOG       45  45 100 CALM      29.84F VSB 3/4
ANNAPOLIS      FOG       45  43  93 CALM      29.82S VSB 1/2
FORT MEADE*    CLOUDY    45  45 100 E3        29.83F VSB 3/4

$$

MDZ012-015-019>023-220100-
MARYLAND EASTERN SHORE

CITY           SKY/WX    TMP DP  RH WIND       PRES   REMARKS
OCEAN CITY     FOG       45  45 100 CALM      29.84S VSB 1/2
SALISBURY      CLOUDY    49  47  93 CALM      29.82F
BAY BRIDGE AP* FOG       45  45 100 CALM      29.82F VSB 1/2
CAMBRIDGE*     CLOUDY    45  45 100 SE3       29.81F
EASTON*        CLOUDY    48  46  93 S3        29.86F FOG

$$

MDZ017>025-220100-
SOUTHERN MARYLAND

CITY           SKY/WX    TMP DP  RH WIND       PRES   REMARKS
PATUXENT RIVER CLOUDY    44  44 100 SE6       29.81S FOG
ST INIGOES     CLOUDY    47  46  97 SE3       29.80F FOG
LEONARDTOWN*   CLOUDY    45  45 100 E3        29.82S

$$

MDZ003>005-220100-
NORTH CENTRAL MARYLAND

CITY           SKY/WX    TMP DP  RH WIND       PRES   REMARKS
FREDERICK*     FOG       46  46 100 CALM      29.82F VSB 1
HAGERSTOWN APT FOG       46  44  93 N5        29.78F VSB 1/2
WESTMINSTER*     N/A     45  45 100 SE3       29.79F FOG

$$

MDZ501>502-220100-
WESTERN MARYLAND

CITY           SKY/WX    TMP DP  RH WIND       PRES   REMARKS
OAKLAND*         N/A     52  45  76 CALM      29.76R
CUMBERLAND*    CLOUDY    45  45 100 CALM      29.80S

$$

VAZ025>031-220100-
SHENANDOAH VALLEY

CITY           SKY/WX    TMP DP  RH WIND       PRES   REMARKS
WINCHESTER*    CLOUDY    45  45 100 CALM      29.77S
FRONT ROYAL*   CLOUDY    46  45  93 N6        29.75S
LURAY*         CLOUDY    48  46  93 CALM      29.76R
NEW MARKET*    CLOUDY    46  45  94 NE6       29.75S
STAUNTON*      CLOUDY    51  47  84 SW3       29.76R
WAYNESBORO*    CLOUDY    49  46  92 SE6       29.75R

$$

WVZ021-048>050-054>055-220100-
EASTERN WEST VIRGINIA PANHANDLE

CITY           SKY/WX    TMP DP  RH WIND       PRES   REMARKS
MARTINSBURG    FOG       46  46 100 NW3       29.79S VSB 1
PETERSBURG*    MOCLDY    50  46  87 N5        29.75F

$$

VAZ036>039-050-220100-
CENTRAL FOOTHILLS

CITY           SKY/WX    TMP DP  RH WIND       PRES   REMARKS
CHARLOTTESVILL FOG       50  48  93 N7        29.77F VSB 1/4
CULPEPER*      CLOUDY    49  49 100 N3        29.79F FOG
ORANGE*        FOG       50  50 100 CALM      29.81R VSB 3/4
GORDONSVILLE*  FOG       49  49 100 CALM      29.78F VSB 1
WARRENTON*     FOG       50  47  90 CALM      29.79S VSB 3/4

$$

VAZ055>057-220100-
NORTH AND CENTRAL PIEDMONT

CITY           SKY/WX    TMP DP  RH WIND       PRES   REMARKS
FREDERICKSBRG* CLOUDY    50  50 100 CALM      29.80R FOG
STAFFORD*      CLOUDY    49  49 100 CALM      29.84S FOG

$$

NCZ024-NYZ072-PAZ021-071-VAZ022-071-220100-
OTHER REGIONAL OBSERVATIONS

CITY           SKY/WX    TMP DP  RH WIND       PRES   REMARKS
NEW YORK CITY  MOCLDY    45  44  97 W6        29.84R FOG
PHILADELPHIA   CLOUDY    46  45  96 S3        29.83F FOG
PITTSBURGH     CLOUDY    60  50  69 SW8       29.70R
ROANOKE        LGT RAIN  50  50 100 E7        29.77R VSB 1/2
RICHMOND       DRZL/FOG  50  50 100 E3        29.79F VSB 1/4
RALEIGH        LGT RAIN  54  52  93 E5        29.74F FOG

$$

ANZ530>537-220100-
MARINE OBSERVATIONS

STATION/POSITION TIME  TEMP    WIND        PRES
                       AIR SEA DIR/SP/G
                 (UTC) (F)     (DEG/KT/KT) (MB)
THOMAS PT LIGHT  0000   42 40  210/  3/  4   N/A
BALT KEY BRIDGE  2348          100/  5/  5 1009.9F
COVE POINT       2348          170/  5/  6 1010.1F
LEWISETTA        2348      44  130/  3/  4 1009.1F
SOLOMONS ISLAND  2348      42   80/  5/  5   N/A
PINEY POINT      2342          120/  7/  7   N/A

$$




USA.gov is the U.S. government's official web portal to all federal, state and local government web resources and services.